Retour au catalogue

COSMOS 2251 DEB

ActifLEO
NORAD 34011·DEBRIS·🇷🇺 Russia

Lancé Jun 16, 1993 depuis Plesetsk Cosmodrome

Loading…

Prochains Passages (prochaines 24 heures)

TLE

FraisSource: Space-Track

Époque: Sep 13, 2026, 21:09 UTC

1 34011U 93036GW  26256.88152209  .00001519  00000-0  45755-3 0  9991
2 34011  74.0137 178.9936 0038847 201.1474 158.8079 14.42982470918833

Suivez COSMOS 2251 DEB en temps réel avec AllMySat

Download on the App Store